"read_dt","SO2 (ppb)","flags","PMT voltage (V)","lamp voltage (V)","lamp intensity (Hz)","internal temp (C)","react chamber temp (C)","sample flow (l/min)","pres (mmHg)","SO2 bkg (ppb)","SO2 coefficient"
2016-06-23 00:00:00,2064E-3,5C000400,-0724,0828,12312,030.8,045.5,0.250,744.2,01.18,0.508
2016-06-23 00:01:00,1963E-3,5C000400,-0724,0828,12197,030.7,045.5,0.249,744.2,01.18,0.508
2016-06-23 00:02:00,2106E-3,5C000400,-0724,0829,12160,030.7,045.5,0.250,744.2,01.18,0.508
2016-06-23 00:03:00,2184E-3,5C000400,-0724,0828,12178,030.7,045.5,0.250,744.2,01.18,0.508
2016-06-23 00:04:00,2198E-3,5C000400,-0724,0827,12183,030.7,045.5,0.250,744.1,01.18,0.508
2016-06-23 00:05:00,2065E-3,5C000400,-0724,0829,12257,030.7,045.5,0.250,744.0,01.18,0.508
2016-06-23 00:06:00,2096E-3,5C000400,-0724,0828,12217,030.7,045.5,0.250,743.9,01.18,0.508
2016-06-23 00:07:00,2051E-3,5C000400,-0724,0828,12325,030.7,045.5,0.250,744.0,01.18,0.508
2016-06-23 00:08:00,2031E-3,5C000400,-0724,0827,12133,030.7,045.5,0.250,744.1,01.18,0.508
2016-06-23 00:09:00,2104E-3,5C000400,-0724,0827,12219,030.7,045.5,0.250,744.0,01.18,0.508
2016-06-23 00:10:00,2094E-3,5C000400,-0724,0828,12152,030.6,045.5,0.249,744.0,01.18,0.508
2016-06-23 00:11:00,2069E-3,5C000400,-0724,0828,12190,030.6,045.5,0.250,743.9,01.18,0.508
2016-06-23 00:12:00,2061E-3,5C000400,-0724,0828,12231,030.6,045.5,0.250,744.0,01.18,0.508
2016-06-23 00:13:00,2074E-3,5C000400,-0724,0828,12385,030.6,045.5,0.250,744.0,01.18,0.508
2016-06-23 00:14:00,2142E-3,5C000400,-0724,0828,12275,030.7,045.5,0.250,744.0,01.18,0.508
2016-06-23 00:15:00,1957E-3,5C000400,-0724,0827,12250,030.7,045.5,0.250,744.0,01.18,0.508
2016-06-23 00:16:00,2106E-3,5C000400,-0724,0829,12288,030.8,045.5,0.250,744.0,01.18,0.508
2016-06-23 00:17:00,2267E-3,5C000400,-0724,0828,12178,030.8,045.5,0.250,744.0,01.18,0.508
2016-06-23 00:18:00,2147E-3,5C000400,-0724,0828,12073,030.9,045.5,0.250,744.0,01.18,0.508
2016-06-23 00:19:00,2172E-3,5C000400,-0724,0828,12235,031.0,045.5,0.250,744.0,01.18,0.508
2016-06-23 00:20:00,2146E-3,5C000400,-0724,0828,12214,031.0,045.5,0.249,743.9,01.18,0.508
2016-06-23 00:21:00,2051E-3,5C000400,-0724,0828,12346,031.0,045.5,0.250,743.9,01.18,0.508
2016-06-23 00:22:00,1907E-3,5C000400,-0724,0828,12350,031.0,045.5,0.250,743.9,01.18,0.508
2016-06-23 00:23:00,2247E-3,5C000400,-0724,0828,12193,031.0,045.5,0.249,743.9,01.18,0.508
2016-06-23 00:24:00,2096E-3,5C000400,-0724,0829,12180,031.0,045.5,0.250,743.9,01.18,0.508
2016-06-23 00:25:00,2048E-3,5C000400,-0724,0827,12188,031.0,045.5,0.250,743.8,01.18,0.508
2016-06-23 00:26:00,2154E-3,5C000400,-0724,0827,12141,030.9,045.5,0.249,743.8,01.18,0.508
2016-06-23 00:27:00,2108E-3,5C000400,-0724,0828,12087,030.8,045.5,0.250,743.9,01.18,0.508
2016-06-23 00:28:00,2142E-3,5C000400,-0724,0827,12254,030.8,045.5,0.249,743.8,01.18,0.508
2016-06-23 00:29:00,1934E-3,5C000400,-0724,0828,12186,030.8,045.5,0.250,743.8,01.18,0.508
2016-06-23 00:30:00,2142E-3,5C000400,-0724,0828,12219,030.8,045.5,0.249,743.9,01.18,0.508
2016-06-23 00:31:00,2000E-3,5C000400,-0724,0827,12040,030.9,045.5,0.250,744.0,01.18,0.508
2016-06-23 00:32:00,2121E-3,5C000400,-0724,0828,12229,030.9,045.5,0.249,744.0,01.18,0.508
2016-06-23 00:33:00,2134E-3,5C000400,-0724,0828,12146,031.0,045.5,0.250,744.0,01.18,0.508
2016-06-23 00:34:00,1976E-3,5C000400,-0724,0828,12371,031.0,045.5,0.250,744.0,01.18,0.508
2016-06-23 00:35:00,2217E-3,5C000400,-0724,0828,12146,031.1,045.5,0.249,744.0,01.18,0.508
2016-06-23 00:36:00,2147E-3,5C000400,-0724,0828,12278,031.1,045.5,0.250,743.9,01.18,0.508
2016-06-23 00:37:00,1975E-3,5C000400,-0724,0829,12155,031.1,045.5,0.249,744.0,01.18,0.508
2016-06-23 00:38:00,2029E-3,5C000400,-0724,0828,12197,031.1,045.5,0.249,744.0,01.18,0.508
2016-06-23 00:39:00,2067E-3,5C000400,-0724,0828,11990,031.1,045.5,0.249,744.0,01.18,0.508
2016-06-23 00:40:00,2215E-3,5C000400,-0723,0829,12294,031.1,045.5,0.249,744.0,01.18,0.508
2016-06-23 00:41:00,2085E-3,5C000400,-0724,0828,12142,031.0,045.5,0.250,744.0,01.18,0.508
2016-06-23 00:42:00,1982E-3,5C000400,-0724,0828,12170,030.9,045.5,0.249,744.0,01.18,0.508
2016-06-23 00:43:00,2213E-3,5C000400,-0724,0828,12317,030.9,045.5,0.250,744.1,01.18,0.508
2016-06-23 00:44:00,2202E-3,5C000400,-0724,0828,12094,030.9,045.5,0.249,744.0,01.18,0.508
2016-06-23 00:45:00,2145E-3,5C000400,-0724,0828,12308,030.9,045.5,0.250,744.0,01.18,0.508
2016-06-23 00:46:00,2003E-3,5C000400,-0724,0828,12244,030.9,045.5,0.249,744.0,01.18,0.508
2016-06-23 00:47:00,2150E-3,5C000400,-0724,0829,12093,030.8,045.5,0.250,744.1,01.18,0.508
2016-06-23 00:48:00,2097E-3,5C000400,-0724,0828,12256,030.8,045.5,0.249,744.0,01.18,0.508
2016-06-23 00:49:00,2013E-3,5C000400,-0724,0828,12145,030.8,045.5,0.250,744.1,01.18,0.508
2016-06-23 00:50:00,2102E-3,5C000400,-0724,0828,12172,030.8,045.5,0.250,744.0,01.18,0.508
2016-06-23 00:51:00,2021E-3,5C000400,-0724,0828,12277,030.8,045.5,0.250,744.1,01.18,0.508
2016-06-23 00:52:00,2004E-3,5C000400,-0724,0828,12205,030.9,045.5,0.250,744.1,01.18,0.508
2016-06-23 00:53:00,2010E-3,5C000400,-0724,0828,12236,030.9,045.5,0.250,744.1,01.18,0.508
2016-06-23 00:54:00,2078E-3,5C000400,-0724,0828,12103,030.9,045.5,0.250,744.1,01.18,0.508
2016-06-23 00:55:00,1951E-3,5C000400,-0724,0828,12151,030.8,045.5,0.250,744.2,01.18,0.508
2016-06-23 00:56:00,2030E-3,5C000400,-0724,0828,12242,030.8,045.5,0.250,744.0,01.18,0.508
2016-06-23 00:57:00,1953E-3,5C000400,-0724,0828,12221,030.8,045.5,0.250,744.1,01.18,0.508
2016-06-23 00:58:00,1938E-3,5C000400,-0724,0827,12176,030.7,045.5,0.249,744.1,01.18,0.508
2016-06-23 00:59:00,2004E-3,5C000400,-0724,0828,12144,030.7,045.5,0.250,744.2,01.18,0.508
2016-06-23 01:00:00,2143E-3,5C000400,-0724,0828,12164,030.7,045.5,0.249,744.1,01.18,0.508
2016-06-23 01:01:00,2102E-3,5C000400,-0724,0829,12255,030.7,045.5,0.250,744.2,01.18,0.508
2016-06-23 01:02:00,2089E-3,5C000400,-0724,0829,12172,030.7,045.5,0.249,744.2,01.18,0.508
2016-06-23 01:03:00,2027E-3,5C000400,-0724,0828,12056,030.7,045.5,0.250,744.1,01.18,0.508
2016-06-23 01:04:00,2146E-3,5C000400,-0724,0828,12256,030.7,045.5,0.250,744.1,01.18,0.508
2016-06-23 01:05:00,2022E-3,5C000400,-0724,0828,12307,030.7,045.5,0.250,744.2,01.18,0.508
2016-06-23 01:06:00,2156E-3,5C000400,-0724,0827,12173,030.7,045.5,0.250,744.2,01.18,0.508
2016-06-23 01:07:00,2026E-3,5C000400,-0724,0829,12250,030.7,045.5,0.250,744.2,01.18,0.508
2016-06-23 01:08:00,2116E-3,5C000400,-0724,0828,12062,030.6,045.5,0.250,744.1,01.18,0.508
2016-06-23 01:09:00,2094E-3,5C000400,-0724,0828,12238,030.6,045.5,0.249,744.1,01.18,0.508
2016-06-23 01:10:00,1886E-3,5C000400,-0724,0828,12184,030.7,045.5,0.250,744.2,01.18,0.508
2016-06-23 01:11:00,2135E-3,5C000400,-0724,0828,12161,030.7,045.5,0.250,744.1,01.18,0.508
2016-06-23 01:12:00,2052E-3,5C000400,-0724,0828,12158,030.7,045.5,0.250,744.1,01.18,0.508
2016-06-23 01:13:00,2058E-3,5C000400,-0724,0829,12180,030.7,045.5,0.250,744.1,01.18,0.508
2016-06-23 01:14:00,2164E-3,5C000400,-0724,0828,12176,030.7,045.5,0.250,744.3,01.18,0.508
2016-06-23 01:15:00,2299E-3,5C000400,-0724,0828,12224,030.7,045.5,0.250,744.2,01.18,0.508
2016-06-23 01:16:00,2010E-3,5C000400,-0724,0828,12281,030.7,045.5,0.250,744.2,01.18,0.508
2016-06-23 01:17:00,2049E-3,5C000400,-0724,0827,12282,030.7,045.5,0.250,744.3,01.18,0.508
2016-06-23 01:18:00,1996E-3,5C000400,-0724,0827,12139,030.6,045.5,0.250,744.3,01.18,0.508
2016-06-23 01:19:00,1900E-3,5C000400,-0724,0828,12181,030.6,045.5,0.250,744.3,01.18,0.508
2016-06-23 01:20:00,1907E-3,5C000400,-0724,0828,12187,030.5,045.5,0.250,744.4,01.18,0.508
2016-06-23 01:21:00,2078E-3,5C000400,-0724,0828,12060,030.6,045.5,0.250,744.4,01.18,0.508
2016-06-23 01:22:00,2114E-3,5C000400,-0724,0828,11175,030.6,045.5,0.250,744.4,01.18,0.508
2016-06-23 01:23:00,1992E-3,5C000400,-0724,0828,12251,030.6,045.5,0.250,744.3,01.18,0.508
2016-06-23 01:24:00,1984E-3,5C000400,-0724,0828,12220,030.7,045.5,0.250,744.3,01.18,0.508
2016-06-23 01:25:00,2084E-3,5C000400,-0724,0828,12226,030.7,045.5,0.250,744.2,01.18,0.508
2016-06-23 01:26:00,2121E-3,5C000400,-0724,0828,12253,030.8,045.5,0.250,744.3,01.18,0.508
2016-06-23 01:27:00,2116E-3,5C000400,-0724,0828,12206,030.9,045.5,0.250,744.2,01.18,0.508
2016-06-23 01:28:00,1926E-3,5C000400,-0724,0830,12240,030.9,045.5,0.250,744.2,01.18,0.508
2016-06-23 01:29:00,2139E-3,5C000400,-0724,0828,12290,031.0,045.5,0.249,744.2,01.18,0.508
2016-06-23 01:30:00,2189E-3,5C000400,-0724,0828,12243,031.0,045.5,0.250,744.3,01.18,0.508
2016-06-23 01:31:00,2096E-3,5C000400,-0724,0828,12180,031.0,045.5,0.250,744.3,01.18,0.508
2016-06-23 01:32:00,2144E-3,5C000400,-0724,0829,12149,031.0,045.5,0.249,744.0,01.18,0.508
2016-06-23 01:33:00,1979E-3,5C000400,-0724,0828,12194,031.0,045.5,0.250,744.3,01.18,0.508
2016-06-23 01:34:00,1971E-3,5C000400,-0724,0828,12306,031.0,045.5,0.250,744.3,01.18,0.508
2016-06-23 01:35:00,2041E-3,5C000400,-0724,0828,12123,030.9,045.5,0.250,744.2,01.18,0.508
2016-06-23 01:36:00,1909E-3,5C000400,-0724,0828,12310,030.9,045.5,0.250,744.5,01.17,0.508
2016-06-23 01:37:00,2099E-3,5C000400,-0724,0828,12264,030.8,045.5,0.249,744.4,01.18,0.508
2016-06-23 01:38:00,2167E-3,5C000400,-0724,0828,11119,030.8,045.5,0.250,744.4,01.18,0.508
2016-06-23 01:39:00,2108E-3,5C000400,-0724,0828,12200,030.8,045.5,0.249,744.4,01.18,0.508
2016-06-23 01:40:00,2046E-3,5C000400,-0724,0828,12163,030.9,045.5,0.250,744.4,01.18,0.508
2016-06-23 01:41:00,1965E-3,5C000400,-0724,0828,12196,030.9,045.5,0.249,744.4,01.18,0.508
2016-06-23 01:42:00,1979E-3,5C000400,-0724,0829,12192,030.9,045.5,0.250,744.3,01.18,0.508
2016-06-23 01:43:00,2175E-3,5C000400,-0724,0828,12068,030.9,045.5,0.249,744.3,01.18,0.508
2016-06-23 01:44:00,1992E-3,5C000400,-0724,0829,12120,030.9,045.5,0.250,744.2,01.18,0.508
2016-06-23 01:45:00,1961E-3,5C000400,-0724,0828,12318,030.9,045.5,0.249,744.2,01.18,0.508
2016-06-23 01:46:00,1984E-3,5C000400,-0724,0829,12259,030.8,045.5,0.250,744.3,01.18,0.508
2016-06-23 01:47:00,1877E-3,5C000400,-0724,0828,12121,030.7,045.5,0.250,744.3,01.18,0.508
2016-06-23 01:48:00,2107E-3,5C000400,-0724,0829,12147,030.7,045.5,0.250,744.1,01.18,0.508
2016-06-23 01:49:00,2071E-3,5C000400,-0724,0828,12263,030.7,045.5,0.250,744.2,01.18,0.508
2016-06-23 01:50:00,2161E-3,5C000400,-0724,0828,12311,030.8,045.5,0.250,744.1,01.18,0.508
2016-06-23 01:51:00,2146E-3,5C000400,-0724,0828,12187,030.8,045.5,0.249,744.1,01.18,0.508
2016-06-23 01:52:00,2010E-3,5C000400,-0724,0828,12260,030.8,045.5,0.250,744.1,01.18,0.508
2016-06-23 01:53:00,2138E-3,5C000400,-0724,0828,12240,030.9,045.5,0.249,744.3,01.18,0.508
2016-06-23 01:54:00,1924E-3,5C000400,-0724,0827,12286,030.9,045.5,0.250,744.3,01.18,0.508
2016-06-23 01:55:00,1958E-3,5C000400,-0724,0828,12261,031.0,045.5,0.250,744.3,01.18,0.508
2016-06-23 01:56:00,2075E-3,5C000400,-0724,0828,12152,031.0,045.5,0.249,744.3,01.18,0.508
2016-06-23 01:57:00,2040E-3,5C000400,-0724,0827,12217,031.0,045.5,0.250,744.3,01.18,0.508
2016-06-23 01:58:00,2021E-3,5C000400,-0724,0828,12321,031.0,045.5,0.249,744.4,01.18,0.508
2016-06-23 01:59:00,2028E-3,5C000400,-0724,0828,12205,030.9,045.5,0.250,744.5,01.17,0.508
2016-06-23 02:00:00,2046E-3,5C000400,-0724,0828,12139,030.8,045.5,0.250,744.5,01.17,0.508
2016-06-23 02:01:00,2003E-3,5C000400,-0724,0828,12263,030.8,045.5,0.249,744.5,01.17,0.508
2016-06-23 02:02:00,2115E-3,5C000400,-0724,0828,11949,030.8,045.5,0.250,744.4,01.18,0.508
2016-06-23 02:03:00,2128E-3,5C000400,-0724,0828,12180,030.7,045.5,0.249,744.4,01.18,0.508
2016-06-23 02:04:00,2150E-3,5C000400,-0724,0828,12045,030.7,045.5,0.250,744.4,01.18,0.508
2016-06-23 02:05:00,2154E-3,5C000400,-0724,0828,12209,030.7,045.5,0.250,744.4,01.18,0.508
2016-06-23 02:06:00,2092E-3,5C000400,-0724,0827,12200,030.7,045.5,0.250,744.4,01.18,0.508
2016-06-23 02:07:00,2112E-3,5C000400,-0724,0828,12176,030.7,045.5,0.250,744.5,01.17,0.508
2016-06-23 02:08:00,2012E-3,5C000400,-0724,0828,12256,030.6,045.5,0.250,744.5,01.17,0.508
2016-06-23 02:09:00,1998E-3,5C000400,-0724,0827,12176,030.6,045.5,0.250,744.3,01.18,0.508
2016-06-23 02:10:00,2083E-3,5C000400,-0724,0828,12191,030.6,045.5,0.250,744.5,01.17,0.508
2016-06-23 02:11:00,2137E-3,5C000400,-0724,0828,12241,030.6,045.5,0.250,744.3,01.18,0.508
2016-06-23 02:12:00,2138E-3,5C000400,-0724,0829,12124,030.6,045.5,0.250,744.4,01.18,0.508
2016-06-23 02:13:00,2250E-3,5C000400,-0724,0827,12286,030.6,045.5,0.250,744.4,01.18,0.508
2016-06-23 02:14:00,2019E-3,5C000400,-0724,0828,12167,030.6,045.5,0.250,744.4,01.18,0.508
2016-06-23 02:15:00,2115E-3,5C000400,-0724,0829,12285,030.7,045.5,0.250,744.4,01.18,0.508
2016-06-23 02:16:00,2134E-3,5C000400,-0724,0828,12246,030.6,045.5,0.250,744.3,01.18,0.508
2016-06-23 02:17:00,2006E-3,5C000400,-0724,0828,12193,030.5,045.5,0.250,744.5,01.17,0.508
2016-06-23 02:18:00,1975E-3,5C000400,-0724,0828,12191,030.6,045.5,0.250,744.5,01.17,0.508
2016-06-23 02:19:00,2070E-3,5C000400,-0724,0828,12134,030.6,045.5,0.250,744.4,01.18,0.508
2016-06-23 02:20:00,1912E-3,5C000400,-0724,0828,12219,030.7,045.6,0.250,744.5,01.17,0.508
2016-06-23 02:21:00,2156E-3,5C000400,-0724,0828,12322,030.7,045.5,0.250,744.3,01.18,0.508
2016-06-23 02:22:00,2043E-3,5C000400,-0724,0827,12159,030.8,045.5,0.250,744.3,01.18,0.508
2016-06-23 02:23:00,2186E-3,5C000400,-0724,0827,12181,030.8,045.5,0.250,744.4,01.18,0.508
2016-06-23 02:24:00,2009E-3,5C000400,-0724,0829,12114,030.9,045.5,0.250,744.3,01.18,0.508
2016-06-23 02:25:00,2077E-3,5C000400,-0724,0828,12216,031.0,045.5,0.250,744.4,01.18,0.508
2016-06-23 02:26:00,2124E-3,5C000400,-0724,0828,12236,031.0,045.5,0.250,744.4,01.18,0.508
2016-06-23 02:27:00,2074E-3,5C000400,-0724,0829,12231,031.0,045.5,0.250,744.5,01.17,0.508
2016-06-23 02:28:00,2058E-3,5C000400,-0724,0828,12242,031.1,045.5,0.250,744.4,01.18,0.508
2016-06-23 02:29:00,2058E-3,5C000400,-0724,0829,12079,031.1,045.5,0.249,744.5,01.17,0.508
2016-06-23 02:30:00,2026E-3,5C000400,-0724,0828,12254,031.1,045.5,0.249,744.5,01.17,0.508
2016-06-23 02:31:00,2137E-3,5C000400,-0724,0828,12161,031.0,045.5,0.250,744.5,01.17,0.508
2016-06-23 02:32:00,2031E-3,5C000400,-0724,0828,12225,030.9,045.5,0.249,744.6,01.17,0.508
2016-06-23 02:33:00,2133E-3,5C000400,-0724,0829,12250,030.9,045.5,0.250,744.7,01.17,0.508
2016-06-23 02:34:00,1910E-3,5C000400,-0724,0828,12304,030.9,045.5,0.249,744.7,01.17,0.508
2016-06-23 02:35:00,2083E-3,5C000400,-0724,0829,12317,030.9,045.5,0.250,744.7,01.17,0.508
2016-06-23 02:36:00,2126E-3,5C000400,-0724,0828,12218,031.0,045.5,0.249,744.7,01.17,0.508
2016-06-23 02:37:00,2047E-3,5C000400,-0724,0828,12263,030.9,045.5,0.250,744.7,01.17,0.508
2016-06-23 02:38:00,1988E-3,5C000400,-0724,0828,12230,030.9,045.5,0.249,744.7,01.17,0.508
2016-06-23 02:39:00,2108E-3,5C000400,-0724,0828,12301,030.9,045.5,0.250,744.7,01.17,0.508
2016-06-23 02:40:00,2163E-3,5C000400,-0724,0827,12241,030.8,045.5,0.249,744.6,01.17,0.508
2016-06-23 02:41:00,2106E-3,5C000400,-0724,0829,12213,030.8,045.5,0.250,744.6,01.17,0.508
2016-06-23 02:42:00,2102E-3,5C000400,-0724,0828,12123,030.8,045.5,0.249,744.5,01.17,0.508
2016-06-23 02:43:00,2038E-3,5C000400,-0724,0828,12154,030.8,045.5,0.250,744.4,01.18,0.508
2016-06-23 02:44:00,2067E-3,5C000400,-0724,0828,12359,030.8,045.5,0.249,744.7,01.17,0.508
2016-06-23 02:45:00,2071E-3,5C000400,-0724,0827,12250,030.8,045.5,0.250,744.7,01.17,0.508
2016-06-23 02:46:00,2021E-3,5C000400,-0724,0829,12280,030.8,045.5,0.250,744.8,01.17,0.508
2016-06-23 02:47:00,2056E-3,5C000400,-0724,0828,12143,030.7,045.5,0.250,744.8,01.17,0.508
2016-06-23 02:48:00,2073E-3,5C000400,-0724,0827,12191,030.6,045.5,0.250,744.7,01.17,0.508
2016-06-23 02:49:00,1957E-3,5C000400,-0724,0829,12245,030.6,045.5,0.250,744.8,01.17,0.508
2016-06-23 02:50:00,2099E-3,5C000400,-0724,0829,12388,030.7,045.5,0.250,744.8,01.17,0.508
2016-06-23 02:51:00,2102E-3,5C000400,-0724,0828,12248,030.7,045.5,0.250,744.7,01.17,0.508
2016-06-23 02:52:00,1990E-3,5C000400,-0724,0828,12337,030.7,045.5,0.250,744.6,01.17,0.508
2016-06-23 02:53:00,2110E-3,5C000400,-0724,0829,12185,030.7,045.5,0.250,744.7,01.17,0.508
2016-06-23 02:54:00,2055E-3,5C000400,-0724,0828,12168,030.7,045.5,0.250,744.4,01.18,0.508
2016-06-23 02:55:00,2168E-3,5C000400,-0724,0828,12263,030.7,045.5,0.250,744.6,01.17,0.508
2016-06-23 02:56:00,2080E-3,5C000400,-0724,0827,12280,030.6,045.5,0.250,744.7,01.17,0.508
2016-06-23 02:57:00,2164E-3,5C000400,-0724,0828,12081,030.6,045.5,0.250,744.6,01.17,0.508
2016-06-23 02:58:00,1917E-3,5C000400,-0724,0829,12175,030.6,045.5,0.250,744.7,01.17,0.508
2016-06-23 02:59:00,2230E-3,5C000400,-0724,0828,12224,030.6,045.5,0.250,744.6,01.17,0.508
2016-06-23 03:00:00,2181E-3,5C000400,-0724,0827,12126,030.7,045.6,0.250,744.7,01.17,0.508
2016-06-23 03:01:00,2025E-3,5C000400,-0724,0828,12245,030.7,045.5,0.250,744.7,01.17,0.508
2016-06-23 03:02:00,1987E-3,5C000400,-0724,0828,12179,030.8,045.5,0.250,744.8,01.17,0.508
2016-06-23 03:03:00,2015E-3,5C000400,-0724,0828,12100,030.8,045.5,0.250,744.8,01.17,0.508
2016-06-23 03:04:00,2096E-3,5C000400,-0724,0828,12369,030.9,045.5,0.250,744.8,01.17,0.508
2016-06-23 03:05:00,2044E-3,5C000400,-0724,0829,12249,030.9,045.5,0.250,744.9,01.17,0.508
2016-06-23 03:06:00,2157E-3,5C000400,-0724,0828,12092,030.9,045.5,0.250,744.9,01.17,0.508
2016-06-23 03:07:00,2011E-3,5C000400,-0724,0829,12113,031.0,045.5,0.250,744.9,01.17,0.508
2016-06-23 03:08:00,2151E-3,5C000400,-0724,0828,12234,031.0,045.5,0.250,744.9,01.17,0.508
2016-06-23 03:09:00,2005E-3,5C000400,-0724,0828,12157,030.9,045.5,0.249,744.9,01.17,0.508
2016-06-23 03:10:00,2065E-3,5C000400,-0724,0829,12209,030.8,045.5,0.250,744.8,01.17,0.508
2016-06-23 03:11:00,1920E-3,5C000400,-0724,0828,12114,030.8,045.5,0.250,744.9,01.17,0.508
2016-06-23 03:12:00,1888E-3,5C000400,-0724,0828,12315,030.8,045.5,0.250,744.9,01.17,0.508
2016-06-23 03:13:00,2202E-3,5C000400,-0724,0828,12395,030.8,045.5,0.250,744.8,01.17,0.508
2016-06-23 03:14:00,2096E-3,5C000400,-0724,0827,12171,030.8,045.5,0.250,744.8,01.17,0.508
2016-06-23 03:15:00,2025E-3,5C000400,-0724,0828,12293,030.8,045.5,0.250,744.8,01.17,0.508
2016-06-23 03:16:00,2121E-3,5C000400,-0724,0828,12079,030.7,045.5,0.250,744.8,01.17,0.508
2016-06-23 03:17:00,2050E-3,5C000400,-0724,0828,12239,030.7,045.5,0.250,744.8,01.17,0.508
2016-06-23 03:18:00,2056E-3,5C000400,-0724,0828,12349,030.7,045.5,0.250,744.8,01.17,0.508
2016-06-23 03:19:00,2104E-3,5C000400,-0724,0828,12358,030.8,045.5,0.250,744.8,01.17,0.508
2016-06-23 03:20:00,1982E-3,5C000400,-0724,0828,12202,030.8,045.5,0.250,744.8,01.17,0.508
2016-06-23 03:21:00,2186E-3,5C000400,-0724,0828,12239,030.9,045.5,0.250,744.7,01.17,0.508
2016-06-23 03:22:00,2079E-3,5C000400,-0724,0828,12272,030.9,045.5,0.250,744.7,01.17,0.508
2016-06-23 03:23:00,2022E-3,5C000400,-0724,0828,12112,030.9,045.5,0.250,744.7,01.17,0.508
2016-06-23 03:24:00,2106E-3,5C000400,-0724,0827,12136,031.0,045.5,0.250,744.7,01.17,0.508
2016-06-23 03:25:00,2080E-3,5C000400,-0724,0829,12117,031.1,045.5,0.250,744.7,01.17,0.508
2016-06-23 03:26:00,2031E-3,5C000400,-0724,0828,12199,031.1,045.5,0.249,744.8,01.17,0.508
2016-06-23 03:27:00,2155E-3,5C000400,-0724,0828,12155,031.1,045.5,0.250,745.0,01.17,0.508
2016-06-23 03:28:00,2072E-3,5C000400,-0724,0828,12274,031.1,045.5,0.250,745.0,01.17,0.508
2016-06-23 03:29:00,2005E-3,5C000400,-0724,0828,12235,031.2,045.5,0.249,744.9,01.17,0.508
2016-06-23 03:30:00,2027E-3,5C000400,-0724,0828,12196,031.2,045.5,0.250,744.9,01.17,0.508
2016-06-23 03:31:00,2088E-3,5C000400,-0724,0828,12234,031.2,045.5,0.249,745.0,01.17,0.508
2016-06-23 03:32:00,2101E-3,5C000400,-0724,0829,12104,031.2,045.5,0.249,745.0,01.17,0.508
2016-06-23 03:33:00,2033E-3,5C000400,-0724,0828,12123,031.1,045.5,0.249,745.0,01.17,0.508
2016-06-23 03:34:00,2029E-3,5C000400,-0724,0829,12393,031.1,045.5,0.249,745.0,01.17,0.508
2016-06-23 03:35:00,2158E-3,5C000400,-0724,0829,12280,031.0,045.5,0.249,745.0,01.17,0.508
2016-06-23 03:36:00,1968E-3,5C000400,-0724,0828,12317,031.0,045.5,0.249,745.0,01.17,0.508
2016-06-23 03:37:00,1946E-3,5C000400,-0724,0828,12256,031.0,045.5,0.249,745.0,01.17,0.508
2016-06-23 03:38:00,2029E-3,5C000400,-0724,0829,12195,031.0,045.5,0.249,744.9,01.17,0.508
2016-06-23 03:39:00,2129E-3,5C000400,-0724,0829,12081,031.0,045.5,0.249,744.9,01.17,0.508
2016-06-23 03:40:00,1992E-3,5C000400,-0724,0829,12206,031.0,045.5,0.249,744.9,01.17,0.508
2016-06-23 03:41:00,2022E-3,5C000400,-0724,0829,12226,030.9,045.5,0.249,744.9,01.17,0.508
2016-06-23 03:42:00,2185E-3,5C000400,-0724,0828,12187,030.9,045.5,0.249,745.1,01.17,0.508
2016-06-23 03:43:00,2114E-3,5C000400,-0724,0828,12203,030.9,045.5,0.250,745.1,01.17,0.508
2016-06-23 03:44:00,1955E-3,5C000400,-0724,0828,12219,030.8,045.5,0.249,745.1,01.17,0.508
2016-06-23 03:45:00,2083E-3,5C000400,-0724,0829,12184,030.8,045.5,0.250,744.9,01.17,0.508
2016-06-23 03:46:00,1970E-3,5C000400,-0724,0828,12060,030.8,045.5,0.249,745.0,01.17,0.508
2016-06-23 03:47:00,1995E-3,5C000400,-0724,0829,12218,030.8,045.5,0.250,744.9,01.17,0.508
2016-06-23 03:48:00,1978E-3,5C000400,-0724,0828,12265,030.8,045.5,0.250,744.9,01.17,0.508
2016-06-23 03:49:00,2080E-3,5C000400,-0724,0829,12177,030.8,045.5,0.250,745.0,01.17,0.508
2016-06-23 03:50:00,2055E-3,5C000400,-0724,0828,12221,030.8,045.5,0.250,745.0,01.17,0.508
2016-06-23 03:51:00,2014E-3,5C000400,-0724,0828,12138,030.8,045.5,0.249,745.0,01.17,0.508
2016-06-23 03:52:00,1999E-3,5C000400,-0724,0828,12312,030.8,045.5,0.250,745.1,01.17,0.508
2016-06-23 03:53:00,2135E-3,5C000400,-0724,0828,12076,030.8,045.5,0.249,745.0,01.17,0.508
2016-06-23 03:54:00,2093E-3,5C000400,-0724,0829,12276,030.7,045.5,0.250,745.0,01.17,0.508
2016-06-23 03:55:00,2296E-3,5C000400,-0724,0828,12292,030.7,045.5,0.250,745.0,01.17,0.508
2016-06-23 03:56:00,2127E-3,5C000400,-0724,0829,12285,030.7,045.5,0.250,745.0,01.17,0.508
2016-06-23 03:57:00,2101E-3,5C000400,-0724,0828,12144,030.7,045.5,0.250,744.9,01.17,0.508
2016-06-23 03:58:00,2043E-3,5C000400,-0724,0828,12234,030.7,045.5,0.250,745.0,01.17,0.508
2016-06-23 03:59:00,2055E-3,5C000400,-0724,0828,12238,030.7,045.5,0.250,744.8,01.17,0.508
2016-06-23 04:00:00,2046E-3,5C000400,-0724,0828,12280,030.8,045.5,0.250,745.0,01.17,0.508
2016-06-23 04:01:00,2071E-3,5C000400,-0724,0828,12222,030.7,045.5,0.250,744.8,01.17,0.508
2016-06-23 04:02:00,2130E-3,5C000400,-0724,0828,12243,030.8,045.5,0.250,745.0,01.17,0.508
2016-06-23 04:03:00,2140E-3,5C000400,-0724,0827,12232,030.7,045.5,0.250,745.1,01.17,0.508
2016-06-23 04:04:00,2013E-3,5C000400,-0724,0828,12176,030.7,045.5,0.250,745.1,01.17,0.508
2016-06-23 04:05:00,2102E-3,5C000400,-0724,0828,12220,030.7,045.5,0.250,745.1,01.17,0.508
2016-06-23 04:06:00,2185E-3,5C000400,-0724,0829,12214,030.7,045.5,0.249,744.9,01.17,0.508
2016-06-23 04:07:00,2140E-3,5C000400,-0724,0828,12188,030.6,045.5,0.250,744.9,01.17,0.508
2016-06-23 04:08:00,2165E-3,5C000400,-0724,0828,12241,030.7,045.5,0.250,744.8,01.17,0.508
2016-06-23 04:09:00,2182E-3,5C000400,-0724,0828,12357,030.6,045.5,0.250,744.9,01.17,0.508
2016-06-23 04:10:00,2156E-3,5C000400,-0724,0828,12296,030.6,045.5,0.250,744.9,01.17,0.508
2016-06-23 04:11:00,2097E-3,5C000400,-0724,0829,12194,030.6,045.5,0.250,744.9,01.17,0.508
2016-06-23 04:12:00,2054E-3,5C000400,-0724,0828,12243,030.6,045.5,0.250,745.1,01.17,0.508
2016-06-23 04:13:00,2104E-3,5C000400,-0724,0829,12165,030.6,045.5,0.250,745.1,01.17,0.508
2016-06-23 04:14:00,2103E-3,5C000400,-0724,0828,12210,030.6,045.5,0.250,745.0,01.17,0.508
2016-06-23 04:15:00,2064E-3,5C000400,-0724,0828,12178,030.6,045.5,0.250,745.0,01.17,0.508
2016-06-23 04:16:00,2017E-3,5C000400,-0724,0828,12075,030.6,045.5,0.250,744.9,01.17,0.508
2016-06-23 04:17:00,2176E-3,5C000400,-0724,0828,12327,030.6,045.5,0.250,745.2,01.17,0.508
2016-06-23 04:18:00,2097E-3,5C000400,-0724,0828,12235,030.6,045.5,0.250,745.2,01.17,0.508
2016-06-23 04:19:00,2051E-3,5C000400,-0724,0828,12193,030.6,045.5,0.250,745.2,01.17,0.508
2016-06-23 04:20:00,2040E-3,5C000400,-0724,0828,12212,030.6,045.5,0.250,745.2,01.17,0.508